Weather History for KDQH - November, 2013

Change the Weather History Date:

Friday, November 8, 2013

  Actual Average Record
Temperature  
Mean Temperature 54 °F -  
Max Temperature 64 °F 71 °F 86 °F (1986)
Min Temperature 44 °F 44 °F 25 °F (1967)
Degree Days  
Heating Degree Days 11    
Growing Degree Days 4 (Base 50)    
Moisture  
Dew Point 36 °F    
Average Humidity 53    
Maximum Humidity 76    
Minimum Humidity 30    
Precipitation  
Precipitation 0.00 in - - ()
Sea Level Pressure  
Sea Level Pressure 30.23 in    
Wind  
Wind Speed 9 mph (NE)    
Max Wind Speed 18 mph    
Max Gust Speed 24 mph    
Visibility 10 miles    
Events      
Averages and records for this station are not official NWS values.
T = Trace of Precipitation, MM = Missing Value Source: NWS Daily Summary

Daily Weather History Graph

Daily Weather History Graph

Search for Another Location

Airport or City:

Trip Planner

Search our weather history database for the weather conditions in past years. The results will help you decide how hot, cold, wet, or windy it might be!

Date:

Astronomy

Nov. 08, 2013 Rise Set
Actual Time 6:53 AM EST 5:36 PM EST
Civil Twilight 6:27 AM EST 6:02 PM EST
Nautical Twilight 5:58 AM EST 6:31 PM EST
Astronomical Twilight 5:30 AM EST 6:59 PM EST
Moon 11:48 AM EST (11/8) 10:55 PM EST (11/8)
Length of Visible Light 11h 34m
Length of Day
10h 43m
Waxing Crescent, 33% of the Moon is Illuminated
Nov 8
Waxing Crescent
Nov 10
First Quarter
Nov 17
Full
Nov 25
Last Quarter
Dec 2
New

Hourly Weather History & Observations

Time (EST) Temp. Windchill Dew Point Humidity Pressure Visibility Wind Dir Wind Speed Gust Speed Precip Events Conditions
12:15 AM 53.6 °F - 37.4 °F 54% 30.15 in 10.0 mi North 10.4 mph - N/A   Clear
12:35 AM 51.8 °F - 37.4 °F 58% 30.15 in 10.0 mi NNW 8.1 mph - N/A   Clear
12:55 AM 51.8 °F - 39.2 °F 62% 30.15 in 10.0 mi North 8.1 mph - N/A   Clear
1:15 AM 50.0 °F - 37.4 °F 62% 30.15 in 10.0 mi North 9.2 mph - N/A   Clear
1:35 AM 50.0 °F - 37.4 °F 62% 30.16 in 10.0 mi North 5.8 mph - N/A   Clear
1:55 AM 50.0 °F - 37.4 °F 62% 30.16 in 10.0 mi North 9.2 mph - N/A   Clear
2:15 AM 50.0 °F - 37.4 °F 62% 30.15 in 10.0 mi North 9.2 mph - N/A   Clear
2:35 AM 50.0 °F - 37.4 °F 62% 30.16 in 10.0 mi North 6.9 mph - N/A   Clear
2:55 AM 48.2 °F - 37.4 °F 66% 30.16 in 10.0 mi North 8.1 mph - N/A   Clear
3:15 AM 48.2 °F - 37.4 °F 66% 30.16 in 10.0 mi North 9.2 mph - N/A   Clear
3:35 AM 48.2 °F - 37.4 °F 66% 30.16 in 10.0 mi North 9.2 mph - N/A   Clear
3:55 AM 46.4 °F 41.9 °F 37.4 °F 71% 30.17 in 10.0 mi North 9.2 mph - N/A   Clear
4:15 AM 46.4 °F 42.4 °F 37.4 °F 71% 30.18 in 10.0 mi North 8.1 mph - N/A   Clear
4:35 AM 46.4 °F 41.5 °F 37.4 °F 71% 30.18 in 10.0 mi North 10.4 mph - N/A   Clear
4:55 AM 46.4 °F 41.9 °F 37.4 °F 71% 30.19 in 10.0 mi North 9.2 mph - N/A   Clear
5:15 AM 46.4 °F 41.1 °F 37.4 °F 71% 30.20 in 10.0 mi North 11.5 mph - N/A   Clear
5:35 AM 46.4 °F 41.5 °F 37.4 °F 71% 30.20 in 10.0 mi North 10.4 mph - N/A   Clear
5:55 AM 46.4 °F 42.4 °F 37.4 °F 71% 30.20 in 10.0 mi North 8.1 mph - N/A   Clear
6:15 AM 44.6 °F 39.7 °F 37.4 °F 76% 30.21 in 10.0 mi North 9.2 mph - N/A   Clear
6:35 AM 44.6 °F 40.2 °F 37.4 °F 76% 30.22 in 10.0 mi NNE 8.1 mph - N/A   Clear
6:55 AM 44.6 °F 40.7 °F 37.4 °F 76% 30.23 in 10.0 mi NNE 6.9 mph - N/A   Clear
7:15 AM 44.6 °F 39.7 °F 37.4 °F 76% 30.23 in 10.0 mi North 9.2 mph - N/A   Clear
7:35 AM 46.4 °F 41.9 °F 37.4 °F 71% 30.25 in 10.0 mi NNE 9.2 mph - N/A   Clear
7:55 AM 46.4 °F 41.5 °F 37.4 °F 71% 30.25 in 10.0 mi NNE 10.4 mph - N/A   Clear
8:15 AM 50.0 °F - 37.4 °F 62% 30.26 in 10.0 mi NNE 10.4 mph 16.1 mph N/A   Clear
8:35 AM 51.8 °F - 37.4 °F 58% 30.27 in 10.0 mi NE 12.7 mph - N/A   Clear
8:55 AM 51.8 °F - 35.6 °F 54% 30.27 in 10.0 mi NE 13.8 mph 18.4 mph N/A   Clear
9:15 AM 53.6 °F - 35.6 °F 51% 30.28 in 10.0 mi NE 16.1 mph 24.2 mph N/A   Clear
9:35 AM 55.4 °F - 35.6 °F 47% 30.28 in 10.0 mi NE 16.1 mph 20.7 mph N/A   Clear
9:55 AM 55.4 °F - 33.8 °F 44% 30.28 in 10.0 mi NE 15.0 mph 20.7 mph N/A   Clear
10:15 AM 57.2 °F - 33.8 °F 41% 30.29 in 10.0 mi ENE 18.4 mph 23.0 mph N/A   Clear
10:35 AM 59.0 °F - 33.8 °F 39% 30.29 in 10.0 mi NE 15.0 mph 21.9 mph N/A   Clear
10:55 AM 59.0 °F - 33.8 °F 39% 30.29 in 10.0 mi NE 15.0 mph - N/A   Clear
11:15 AM 59.0 °F - 33.8 °F 39% 30.29 in 10.0 mi NE 15.0 mph - N/A   Clear
11:35 AM 60.8 °F - 33.8 °F 36% 30.28 in 10.0 mi NE 13.8 mph 17.3 mph N/A   Clear
11:55 AM 62.6 °F - 33.8 °F 34% 30.28 in 10.0 mi NE 12.7 mph 17.3 mph N/A   Clear
12:15 PM 62.6 °F - 33.8 °F 34% 30.26 in 10.0 mi ENE 11.5 mph 21.9 mph N/A   Clear
12:35 PM 62.6 °F - 32.0 °F 32% 30.26 in 10.0 mi NE 11.5 mph - N/A   Clear
12:55 PM 62.6 °F - 32.0 °F 32% 30.25 in 10.0 mi NNE 11.5 mph - N/A   Clear
1:15 PM 64.4 °F - 32.0 °F 30% 30.24 in 10.0 mi NE 12.7 mph 18.4 mph N/A   Clear
1:35 PM 64.4 °F - 32.0 °F 30% 30.23 in 10.0 mi ENE 12.7 mph 16.1 mph N/A   Clear
1:55 PM 64.4 °F - 32.0 °F 30% 30.23 in 10.0 mi ENE 11.5 mph 17.3 mph N/A   Clear
2:15 PM 64.4 °F - 32.0 °F 30% 30.23 in 10.0 mi NNE 11.5 mph 16.1 mph N/A   Clear
2:35 PM 64.4 °F - 32.0 °F 30% 30.22 in 10.0 mi ENE 9.2 mph 24.2 mph N/A   Clear
2:55 PM 64.4 °F - 32.0 °F 30% 30.22 in 10.0 mi ENE 11.5 mph - N/A   Clear
3:15 PM 64.4 °F - 32.0 °F 30% 30.22 in 10.0 mi NE 10.4 mph 18.4 mph N/A   Clear
3:35 PM 64.4 °F - 32.0 °F 30% 30.22 in 10.0 mi NE 10.4 mph - N/A   Clear
3:55 PM 64.4 °F - 32.0 °F 30% 30.22 in 10.0 mi ENE 10.4 mph - N/A   Clear
4:15 PM 64.4 °F - 32.0 °F 30% 30.22 in 10.0 mi ENE 9.2 mph - N/A   Clear
4:35 PM 64.4 °F - 32.0 °F 30% 30.22 in 10.0 mi East 8.1 mph - N/A   Clear
4:55 PM 62.6 °F - 32.0 °F 32% 30.22 in 10.0 mi NE 8.1 mph - N/A   Clear
5:15 PM 60.8 °F - 33.8 °F 36% 30.23 in 10.0 mi ENE 6.9 mph - N/A   Clear
5:35 PM 59.0 °F - 33.8 °F 39% 30.23 in 10.0 mi ENE 4.6 mph - N/A   Clear
5:55 PM 55.4 °F - 35.6 °F 47% 30.23 in 10.0 mi NE 3.5 mph - N/A   Clear
6:15 PM 53.6 °F - 35.6 °F 51% 30.24 in 10.0 mi Calm Calm - N/A   Clear
6:35 PM 53.6 °F - 37.4 °F 54% 30.25 in 10.0 mi NE 4.6 mph - N/A   Clear
6:55 PM 51.8 °F - 37.4 °F 58% 30.25 in 10.0 mi NE 3.5 mph - N/A   Clear
7:15 PM 51.8 °F - 37.4 °F 58% 30.25 in 10.0 mi NE 5.8 mph - N/A   Clear
7:35 PM 53.6 °F - 37.4 °F 54% 30.25 in 10.0 mi ENE 5.8 mph - N/A   Clear
7:55 PM 53.6 °F - 35.6 °F 51% 30.26 in 10.0 mi ENE 5.8 mph - N/A   Clear
8:15 PM 53.6 °F - 37.4 °F 54% 30.26 in 10.0 mi ENE 6.9 mph - N/A   Clear
8:35 PM 51.8 °F - 37.4 °F 58% 30.26 in 10.0 mi ENE 5.8 mph - N/A   Clear
8:55 PM 51.8 °F - 37.4 °F 58% 30.26 in 10.0 mi ENE 4.6 mph - N/A   Clear
9:15 PM 51.8 °F - 37.4 °F 58% 30.26 in 10.0 mi East 4.6 mph - N/A   Clear
9:35 PM 50.0 °F - 37.4 °F 62% 30.27 in 10.0 mi ENE 4.6 mph - N/A   Clear
9:55 PM 50.0 °F - 37.4 °F 62% 30.27 in 10.0 mi ENE 3.5 mph - N/A   Clear
10:15 PM 50.0 °F - 37.4 °F 62% 30.28 in 10.0 mi East 3.5 mph - N/A   Clear
10:35 PM 48.2 °F - 37.4 °F 66% 30.27 in 10.0 mi East 3.5 mph - N/A   Clear
10:55 PM 48.2 °F - 37.4 °F 66% 30.28 in 10.0 mi East 3.5 mph - N/A   Clear
11:15 PM 46.4 °F 44.3 °F 37.4 °F 71% 30.28 in 10.0 mi ENE 4.6 mph - N/A   Clear
11:35 PM 46.4 °F - 37.4 °F 71% 30.28 in 10.0 mi Calm Calm - N/A   Clear
11:55 PM 46.4 °F - 37.4 °F 71% 30.28 in 10.0 mi Calm Calm - N/A   Clear